Home   Weather   Elbląg   Past weeks

Flag for Poland Past Weather in Elbląg, Poland — Yesterday and Last 2 Weeks

Now
39 °F

Fog.


Feels Like: 35 °F
Forecast: 37 / 42 °F
Wind: 6 mph from Southwest

Location: Hel

Current Time: Feb 20, 2017 at 5:05:21 am

Latest Report: Feb 20, 2017 at 4:00 am


Visibility: 4 mi

Pressure: 29.84 "Hg

Humidity: 93%

Dew Point: 37 °F

Location of ElblągLocation

Past Weather in Elbląg — Graph

°F

Elbląg Temperature Yesterday

Maximum temperature yesterday: 41 °F (at 2:00 pm)
Minimum temperature yesterday: 37 °F (at 12:00 am)
Average temperature yesterday: 39 °F

High & Low Weather Summary for the Past Weeks

 TemperatureHumidityPressure
High41 °F (Feb 19, 2:00 pm)98% (Feb 15, 9:00 am)30.77 "Hg (Feb 15, 9:00 am)
Low18 °F (Feb 8, 11:00 pm)54% (Feb 10, 12:00 pm)29.80 "Hg (Feb 5, 3:00 am)
Average30 °F84%30.40 "Hg
* Reported Feb 5 3:00 am — Feb 20 3:00 am, Elbląg, Weather by CustomWeather, © 2017

Note: Actual official high and low records may vary slightly from our data, if they occured in-between our weather recording intervals... More about our weather records

Advertising

Elbląg Weather History for the Previous 24 Hours

Scroll right to see more
 ConditionsComfort  
Time TempWeatherWind HumidityBarometerVisibility
3:00 am
Mon, Feb 20
39 °FFog.5 mph92%29.86 "Hg4 mi
2:00 am39 °FFog.6 mph92%29.88 "Hg4 mi
1:00 am39 °FFog.6 mph92%29.88 "Hg4 mi
12:00 am39 °FFog.6 mph92%29.89 "Hg4 mi
11:00 pm
Sun, Feb 19
39 °FFog.6 mph91%29.91 "Hg4 mi
10:00 pm40 °FFog.6 mph89%29.91 "Hg4 mi
9:00 pm40 °FFog.6 mph88%29.92 "Hg4 mi
8:00 pm40 °FFog.6 mph86%29.92 "Hg4 mi
7:00 pm40 °FFog.5 mph85%29.92 "Hg4 mi
6:00 pm40 °FFog.6 mph87%29.92 "Hg4 mi
5:00 pm40 °FFog.6 mph87%29.92 "Hg5 mi
4:00 pm41 °FFog.6 mph84%29.93 "Hg5 mi
3:00 pm41 °FFog.5 mph84%29.93 "Hg4 mi
2:00 pm41 °FOvercast.6 mph84%29.95 "Hg5 mi
1:00 pm40 °FSprinkles. Overcast.6 mph87%29.97 "Hg4 mi
12:00 pm39 °FSprinkles. Overcast.5 mph92%29.98 "Hg3 mi
11:00 am39 °FSprinkles. Overcast.6 mph90%30.00 "Hg4 mi
10:00 am38 °FFog.6 mph87%30.01 "Hg6 mi
9:00 am37 °FFog.6 mph89%30.03 "Hg4 mi
8:00 am37 °FOvercast.7 mph90%30.04 "Hg6 mi
7:00 am37 °FOvercast.6 mph91%30.05 "Hg6 mi
6:00 am37 °FOvercast.6 mph87%30.06 "Hg12 mi
5:00 am37 °FOvercast.6 mph86%30.08 "Hg12 mi
Weather by CustomWeather, © 2017

See weather overviewHow to use our weather pages